Weather in Grigoryevka

Russia / Chelyabinsk Oblast     56°09′34″N   60°56′30″E
temp.,
°C
wind,
m/s
gust,
m/s
humid.,
%
clouds,
%
prec.,
mm/h
press.,
hPa
HPBL,
m
15 april, thu
thu1523:00+10wnw228475 0.0 102810
02:00+9wsw228379 0.0 102710
05:00+8wsw228533 0.0 102613
08:00+11wsw287941 0.0 1025218
11:00+16w464716 0.0 1024815
14:00+18wsw573613 0.0 10221095
17:00+18w584381 0.0 10211234
20:00+13wsw356866 0.0 102077
16 april, fri
fri1623:00+10w311810 0.0 1020231
02:00+9w31181100 0.0 1019233
05:00+8nw3983100 0.0 1020266
08:00+6nne5885100 0.0 1024760
11:00+4ne4789100 0.1 1026640
14:00+7ene455386 0.0 10261176
17:00+9ene34425 0.0 10261502
20:00+5ene24590 0.0 102660
17 april, sat
sat1723:00+3e22640 0.0 102721
02:00+1ene11685 0.0 102710
05:000nw01695 0.0 102710
08:00+4nw11563 0.0 1027145
11:00+8n01410 0.0 10261153
14:00+11w13345 0.0 10241865
17:00+11nw343384 0.0 10232191
20:00+7nw26535 0.0 1022105
18 april, sun
sun1823:00+4nw26675 0.0 1022145
02:00+2wnw310755 0.0 1020261
05:00+2w412740 0.0 1019463
08:00+4wnw612665 0.0 1017993
11:00+6nnw61065100 0.1 10181511
14:00+4nne81039100 0.3 10222038
17:00+3nne7739100 0.3 10252149
20:000nne58445 0.0 1028892
19 april, mon
mon1923:00−2ne48451 0.0 1031885
02:00−3ne48450 0.0 10331249
05:00−4nne25540 0.0 1035357
08:00−3nne46405 0.0 10361413
11:000ne35315 0.0 10361695
14:00+2nne342811 0.0 10352003
17:00+3nne342980 0.0 10342165
20:00−1nne11465 0.0 103410